Overview Statistics Trail Chart Weather Telemetry Raw packets
 

This is the latest recevied weather packets stored in our database for station/object K4WCH. If no packets are shown the sender has not sent any weather packets the latest 10 day(s).

<< 55 56 57 58 59 60 61 >>
Time Temp. Humidity Pressure Rain* Wind** Luminosity Snow
1788287738 29.44° C 81% 1016.7 hPa 0 mm - 483 W/m² -
1788287433 29.44° C 78% 1016.7 hPa 0 mm - 579 W/m² -
1788287130 29.44° C 78% 1016.8 hPa 0 mm - 636 W/m² -
1788286830 29.44° C 81% 1016.7 hPa 0 mm - 585 W/m² -
1788286548 28.89° C 81% 1016.9 hPa 0 mm - 691 W/m² -
1788286229 28.89° C 81% 1016.8 hPa 0 mm - 511 W/m² -
1788285927 28.89° C 83% 1016.8 hPa 0 mm - 508 W/m² -
1788285623 28.89° C 81% 1016.7 hPa 0 mm - 507 W/m² -
1788285317 28.33° C 85% 1016.7 hPa 0 mm - 470 W/m² -
1788285010 28.33° C 82% 1016.8 hPa 0 mm - 455 W/m² -
1788284706 28.33° C 83% 1017.1 hPa 0 mm - 566 W/m² -
1788284402 27.78° C 82% 1017.2 hPa 0 mm - 612 W/m² -
1788284097 27.78° C 83% 1017.1 hPa 0 mm - 479 W/m² -
1788283793 27.78° C 84% 1017.3 hPa 0 mm - 454 W/m² -
1788283488 27.78° C 83% 1017.4 hPa 0 mm - 651 W/m² -
1788283186 27.78° C 86% 1017.4 hPa 0 mm - 529 W/m² -
1788282885 27.78° C 85% 1017.5 hPa 0 mm - 597 W/m² -
1788282584 27.22° C 88% 1017.5 hPa 0.51 mm - 750 W/m² -
1788282279 27.22° C 86% 1017.8 hPa 0.51 mm - 535 W/m² -
1788281978 27.22° C 86% 1017.7 hPa 0.51 mm - 532 W/m² -
1788281673 27.22° C 87% 1018.1 hPa 0.51 mm - 387 W/m² -
1788281369 27.22° C 86% 1017.8 hPa 0.51 mm - 342 W/m² -
1788281064 27.78° C 84% 1017.9 hPa 0 mm - 330 W/m² -
1788280759 27.22° C 83% 1017.8 hPa 0 mm - 292 W/m² -
1788280454 27.22° C 82% 1017.8 hPa 0 mm - 252 W/m² -

* Rain latest hour (hover to see other rain measurements)
** Current wind speed in m/s (hover to see current wind gust speed)